DHK001 EBBR-GCLP

Flight info

Callsign DHK001
Flight time N/A
Altitude 39000
Route EBBR/07R N0460F330 CIV4V CIV N872 LESDO DCT KOVIN DCT DUCRA/N0462F390 UM728 RESMI UN857 DISAK DCT ARKIP DCT ARNAV DCT LMG DCT UVELI DCT OSMOB DCT ARVID DCT PPN DCT NOLSA N857 HIJ DCT OXACA DCT OSLEP N747 MINTA DCT AMSEL DCT IBALU UN857 TERTO TERT9Z GCLP/03R
Aircraft A333/H-SDE3GHIJ2J3J5M1RVWXYZ/LB2D1

Departure

Time N/A
Airport Brussels Airport (EBBR)

Arrival

Time 2026-04-29 23:29
Airport Gran Canaria Airport (GCLP)
Time Latitude Longitude Altitude Speed Heading
2026-04-29 21:11 38.61791 -5.00784 38963 ft 421 kts 217°
2026-04-29 21:12 38.59334 -5.02841 38964 ft 421 kts 217°
2026-04-29 21:12 38.54424 -5.06948 38951 ft 421 kts 218°
2026-04-29 21:13 38.49971 -5.11637 38975 ft 414 kts 230°
2026-04-29 21:13 38.46272 -5.17249 38976 ft 412 kts 234°
2026-04-29 21:14 38.42744 -5.23020 38976 ft 412 kts 234°
2026-04-29 21:14 38.39237 -5.28806 38976 ft 412 kts 234°
2026-04-29 21:15 38.35705 -5.34579 38986 ft 413 kts 234°
2026-04-29 21:15 38.32172 -5.40316 38982 ft 414 kts 234°
2026-04-29 21:16 38.28604 -5.46090 38980 ft 414 kts 234°
2026-04-29 21:16 38.25032 -5.51859 38986 ft 414 kts 234°
2026-04-29 21:17 38.21463 -5.57616 38986 ft 414 kts 234°
2026-04-29 21:17 38.17911 -5.63337 38979 ft 414 kts 234°
2026-04-29 21:18 38.14330 -5.69092 38984 ft 414 kts 234°
2026-04-29 21:18 38.10747 -5.74843 38991 ft 415 kts 234°
2026-04-29 21:19 38.07184 -5.80551 38994 ft 415 kts 234°
2026-04-29 21:19 38.03597 -5.86287 38978 ft 415 kts 234°
2026-04-29 21:20 38.00006 -5.92018 38995 ft 414 kts 234°
2026-04-29 21:20 37.96414 -5.97742 38994 ft 414 kts 234°
2026-04-29 21:21 37.92791 -6.03441 38998 ft 415 kts 233°
2026-04-29 21:21 37.89150 -6.09058 39010 ft 415 kts 233°
2026-04-29 21:22 37.85473 -6.14706 38998 ft 416 kts 233°
2026-04-29 21:22 37.81795 -6.20359 39001 ft 416 kts 233°
2026-04-29 21:23 37.78109 -6.26019 38986 ft 416 kts 233°
2026-04-29 21:23 37.74448 -6.31633 39004 ft 416 kts 233°
2026-04-29 21:24 37.70759 -6.37280 39009 ft 416 kts 233°
2026-04-29 21:24 37.67071 -6.42917 39007 ft 416 kts 233°
2026-04-29 21:25 37.63398 -6.48521 39008 ft 416 kts 233°
2026-04-29 21:25 37.59702 -6.54150 39006 ft 416 kts 233°
2026-04-29 21:26 37.56625 -6.58827 39008 ft 416 kts 233°
2026-04-29 21:26 37.52926 -6.64443 38997 ft 416 kts 233°
2026-04-29 21:27 37.49219 -6.70062 39007 ft 417 kts 233°
2026-04-29 21:27 37.45523 -6.75654 39006 ft 417 kts 233°
2026-04-29 21:28 37.41806 -6.81269 39009 ft 417 kts 233°
2026-04-29 21:28 37.38114 -6.86835 39010 ft 417 kts 233°
2026-04-29 21:29 37.34385 -6.92449 39008 ft 418 kts 233°
2026-04-29 21:29 37.30652 -6.98059 39009 ft 418 kts 233°
2026-04-29 21:30 37.26943 -7.03622 39012 ft 418 kts 233°
2026-04-29 21:30 37.23202 -7.09224 39014 ft 419 kts 233°
2026-04-29 21:31 37.19466 -7.14845 39020 ft 419 kts 235°
2026-04-29 21:31 37.16501 -7.21066 39016 ft 415 kts 249°
2026-04-29 21:32 37.14661 -7.27883 39021 ft 415 kts 250°
2026-04-29 21:32 37.11989 -7.34302 39017 ft 418 kts 236°
2026-04-29 21:33 37.07892 -7.39518 39018 ft 425 kts 219°
2026-04-29 21:33 37.02585 -7.42942 39020 ft 433 kts 206°
2026-04-29 21:34 36.96875 -7.45476 39020 ft 436 kts 203°
2026-04-29 21:34 36.91147 -7.47867 39022 ft 437 kts 203°
2026-04-29 21:35 36.85393 -7.50307 39022 ft 436 kts 204°
2026-04-29 21:35 36.79639 -7.52788 39027 ft 436 kts 204°
2026-04-29 21:36 36.73896 -7.55276 39018 ft 436 kts 204°
2026-04-29 21:36 36.68155 -7.57761 39027 ft 436 kts 204°
2026-04-29 21:37 36.62439 -7.60228 39031 ft 437 kts 204°
2026-04-29 21:37 36.56695 -7.62703 39030 ft 436 kts 204°
2026-04-29 21:38 36.50958 -7.65170 39028 ft 436 kts 204°
2026-04-29 21:38 36.45205 -7.67640 39034 ft 436 kts 203°
2026-04-29 21:39 36.39497 -7.70088 39036 ft 437 kts 203°
2026-04-29 21:39 36.33738 -7.72552 39036 ft 437 kts 203°
2026-04-29 21:40 36.27986 -7.75011 39035 ft 436 kts 203°
2026-04-29 21:40 36.22268 -7.77451 39031 ft 437 kts 203°
2026-04-29 21:41 36.16513 -7.79903 39036 ft 437 kts 203°
2026-04-29 21:41 36.10760 -7.82350 39039 ft 437 kts 203°
2026-04-29 21:42 36.05004 -7.84795 39038 ft 437 kts 203°
2026-04-29 21:42 35.99283 -7.87221 39033 ft 437 kts 203°
2026-04-29 21:43 35.93695 -7.90146 39034 ft 434 kts 208°
2026-04-29 21:43 35.88256 -7.93391 39037 ft 434 kts 210°
2026-04-29 21:44 35.82838 -7.96693 39037 ft 434 kts 210°
2026-04-29 21:44 35.77457 -7.99967 39037 ft 434 kts 210°
2026-04-29 21:45 35.72031 -8.03251 39039 ft 434 kts 210°
2026-04-29 21:45 35.66592 -8.06531 39037 ft 434 kts 209°
2026-04-29 21:46 35.61163 -8.09799 39037 ft 434 kts 209°
2026-04-29 21:46 35.55734 -8.13063 39040 ft 434 kts 209°
2026-04-29 21:47 35.50340 -8.16301 39041 ft 434 kts 209°
2026-04-29 21:47 35.44903 -8.19560 39034 ft 434 kts 209°
2026-04-29 21:48 35.39466 -8.22815 39041 ft 435 kts 209°
2026-04-29 21:48 35.34008 -8.26077 39040 ft 435 kts 209°
2026-04-29 21:49 35.28593 -8.29308 39040 ft 435 kts 209°
2026-04-29 21:49 35.23151 -8.32550 39040 ft 435 kts 209°
2026-04-29 21:50 35.17687 -8.35801 39039 ft 435 kts 208°
2026-04-29 21:50 35.12270 -8.39019 39042 ft 435 kts 208°
2026-04-29 21:51 35.06824 -8.42250 39042 ft 434 kts 208°
2026-04-29 21:51 34.98658 -8.47084 39046 ft 434 kts 208°
2026-04-29 21:52 34.93215 -8.50301 39031 ft 434 kts 208°
2026-04-29 21:52 34.87806 -8.53492 39052 ft 434 kts 208°
2026-04-29 21:53 34.82373 -8.56694 39041 ft 434 kts 208°
2026-04-29 21:53 34.76934 -8.59894 39042 ft 434 kts 208°
2026-04-29 21:54 34.71498 -8.63088 39055 ft 433 kts 208°
2026-04-29 21:54 34.66089 -8.66261 39046 ft 433 kts 208°
2026-04-29 21:55 34.60653 -8.69445 39048 ft 433 kts 208°
2026-04-29 21:55 34.55229 -8.72618 39050 ft 432 kts 208°
2026-04-29 21:56 34.49811 -8.75782 39052 ft 431 kts 208°
2026-04-29 21:56 34.44506 -8.79143 39051 ft 428 kts 215°
2026-04-29 21:57 34.39740 -8.83386 39045 ft 427 kts 219°
2026-04-29 21:57 34.35081 -8.87850 39047 ft 427 kts 220°
2026-04-29 21:58 34.30441 -8.92348 39048 ft 427 kts 220°
2026-04-29 21:58 34.25792 -8.96829 39045 ft 427 kts 220°
2026-04-29 21:59 34.21136 -9.01291 39045 ft 427 kts 220°
2026-04-29 21:59 34.16470 -9.05750 39048 ft 427 kts 220°
2026-04-29 22:00 34.11807 -9.10200 39051 ft 427 kts 219°
2026-04-29 22:00 34.07174 -9.14615 39050 ft 426 kts 219°
2026-04-29 22:01 34.02512 -9.19051 39048 ft 426 kts 219°
2026-04-29 22:01 33.97851 -9.23481 39048 ft 427 kts 219°
2026-04-29 22:02 33.93187 -9.27907 39047 ft 427 kts 219°
2026-04-29 22:02 33.88521 -9.32328 39048 ft 427 kts 219°
2026-04-29 22:03 33.83852 -9.36747 39045 ft 426 kts 219°
2026-04-29 22:03 33.79216 -9.41128 39048 ft 426 kts 219°
2026-04-29 22:04 33.74552 -9.45528 39048 ft 426 kts 219°
2026-04-29 22:04 33.69888 -9.49923 39048 ft 425 kts 219°
2026-04-29 22:05 33.65227 -9.54309 39048 ft 425 kts 219°
2026-04-29 22:06 33.58237 -9.60874 39048 ft 425 kts 219°
2026-04-29 22:06 33.53576 -9.65245 39048 ft 425 kts 219°
2026-04-29 22:07 33.48936 -9.69589 39048 ft 425 kts 219°
2026-04-29 22:07 33.44274 -9.73948 39048 ft 425 kts 218°
2026-04-29 22:08 33.39604 -9.78308 39048 ft 425 kts 218°
2026-04-29 22:08 33.34941 -9.82655 39048 ft 425 kts 218°
2026-04-29 22:09 33.30296 -9.86980 39051 ft 425 kts 218°
2026-04-29 22:09 33.25621 -9.91327 39050 ft 425 kts 218°
2026-04-29 22:10 33.21739 -9.94932 39051 ft 425 kts 218°
2026-04-29 22:10 33.17057 -9.99274 39051 ft 425 kts 218°
2026-04-29 22:11 33.12384 -10.03602 39048 ft 425 kts 218°
2026-04-29 22:11 33.07724 -10.07911 39048 ft 425 kts 218°
2026-04-29 22:12 33.03046 -10.12232 39048 ft 425 kts 218°
2026-04-29 22:12 32.98364 -10.16548 39050 ft 425 kts 218°
2026-04-29 22:13 32.93683 -10.20852 39058 ft 425 kts 218°
2026-04-29 22:13 32.89018 -10.25136 39050 ft 425 kts 218°
2026-04-29 22:14 32.84325 -10.29440 39050 ft 425 kts 218°
2026-04-29 22:14 32.79625 -10.33745 39050 ft 425 kts 218°
2026-04-29 22:15 32.74932 -10.38038 39051 ft 425 kts 218°
2026-04-29 22:15 32.70257 -10.42308 39048 ft 425 kts 218°
2026-04-29 22:16 32.65565 -10.46589 39053 ft 425 kts 218°
2026-04-29 22:16 32.60871 -10.50864 39050 ft 425 kts 218°
2026-04-29 22:17 32.56204 -10.55110 39048 ft 425 kts 218°
2026-04-29 22:17 32.51528 -10.59359 39057 ft 425 kts 218°
2026-04-29 22:18 32.46823 -10.63628 39053 ft 425 kts 218°
2026-04-29 22:18 32.42119 -10.67890 39045 ft 425 kts 218°
2026-04-29 22:19 32.37414 -10.72147 39051 ft 424 kts 218°
2026-04-29 22:19 32.32722 -10.76387 39051 ft 424 kts 218°
2026-04-29 22:20 32.28051 -10.80602 39050 ft 424 kts 218°
2026-04-29 22:20 32.23347 -10.84842 39050 ft 424 kts 218°
2026-04-29 22:21 32.18645 -10.89074 39053 ft 424 kts 218°
2026-04-29 22:21 32.13973 -10.93273 39045 ft 424 kts 218°
2026-04-29 22:22 32.09267 -10.97497 39051 ft 424 kts 218°
2026-04-29 22:22 32.04578 -11.01701 39050 ft 424 kts 218°
2026-04-29 22:23 31.99862 -11.05923 39053 ft 424 kts 218°
2026-04-29 22:23 31.95181 -11.10108 39053 ft 424 kts 218°
2026-04-29 22:24 31.90479 -11.14306 39053 ft 424 kts 218°
2026-04-29 22:24 31.85766 -11.18510 39053 ft 424 kts 218°
2026-04-29 22:25 31.81059 -11.22701 39053 ft 423 kts 218°
2026-04-29 22:25 31.76389 -11.26855 39053 ft 423 kts 218°
2026-04-29 22:26 31.71690 -11.31040 39056 ft 423 kts 218°
2026-04-29 22:26 31.66992 -11.35230 39053 ft 424 kts 218°
2026-04-29 22:27 31.62315 -11.39397 39056 ft 424 kts 218°
2026-04-29 22:27 31.57596 -11.43595 39056 ft 424 kts 218°
2026-04-29 22:28 31.52894 -11.47770 39054 ft 423 kts 218°
2026-04-29 22:28 31.48230 -11.51907 39056 ft 422 kts 218°
2026-04-29 22:29 31.43543 -11.56060 39056 ft 422 kts 218°
2026-04-29 22:29 31.38845 -11.60216 39056 ft 422 kts 218°
2026-04-29 22:30 31.34180 -11.64338 38753 ft 421 kts 218°
2026-04-29 22:30 31.31839 -11.66404 38475 ft 421 kts 218°
2026-04-29 22:30 31.29500 -11.68467 38206 ft 421 kts 218°
2026-04-29 22:30 31.27151 -11.70538 37928 ft 422 kts 218°
2026-04-29 22:31 31.24800 -11.72610 37650 ft 423 kts 218°
2026-04-29 22:31 31.22443 -11.74685 37372 ft 423 kts 218°
2026-04-29 22:31 31.20090 -11.76756 37106 ft 424 kts 218°
2026-04-29 22:31 31.17730 -11.78831 36846 ft 425 kts 218°
2026-04-29 22:32 31.15396 -11.80882 36592 ft 426 kts 218°
2026-04-29 22:32 31.13023 -11.82966 36336 ft 427 kts 218°
2026-04-29 22:32 31.10647 -11.85051 36083 ft 428 kts 218°
2026-04-29 22:32 31.08261 -11.87144 35843 ft 428 kts 218°
2026-04-29 22:33 31.05873 -11.89237 35588 ft 429 kts 217°
2026-04-29 22:33 31.03479 -11.91334 35336 ft 430 kts 217°
2026-04-29 22:33 31.01107 -11.93411 35102 ft 431 kts 217°
2026-04-29 22:33 30.98698 -11.95518 34858 ft 432 kts 217°
2026-04-29 22:34 30.96289 -11.97624 34623 ft 433 kts 217°
2026-04-29 22:34 30.93882 -11.99726 34376 ft 431 kts 218°
2026-04-29 22:34 30.91488 -12.01817 34151 ft 429 kts 218°
2026-04-29 22:34 30.89094 -12.03905 33885 ft 429 kts 218°
2026-04-29 22:35 30.86700 -12.05993 33626 ft 430 kts 217°
2026-04-29 22:35 30.84299 -12.08086 33362 ft 431 kts 217°
2026-04-29 22:35 30.81893 -12.10181 33094 ft 432 kts 217°
2026-04-29 22:35 30.79479 -12.12282 32821 ft 432 kts 217°
2026-04-29 22:36 30.77102 -12.14350 32555 ft 433 kts 217°
2026-04-29 22:36 30.74689 -12.16447 32329 ft 433 kts 217°
2026-04-29 22:36 30.72269 -12.18549 32065 ft 434 kts 217°
2026-04-29 22:36 30.69848 -12.20651 31803 ft 434 kts 217°
2026-04-29 22:37 30.67421 -12.22756 31552 ft 435 kts 217°
2026-04-29 22:37 30.64998 -12.24857 31294 ft 434 kts 218°
2026-04-29 22:37 30.62577 -12.26954 31044 ft 432 kts 218°
2026-04-29 22:37 30.60171 -12.29038 30805 ft 430 kts 218°
2026-04-29 22:38 30.57767 -12.31118 30562 ft 429 kts 217°
2026-04-29 22:38 30.55407 -12.33159 30327 ft 428 kts 217°
2026-04-29 22:38 30.53019 -12.35223 30089 ft 427 kts 217°
2026-04-29 22:38 30.50638 -12.37279 29806 ft 425 kts 217°
2026-04-29 22:39 30.48264 -12.39323 29535 ft 424 kts 217°
2026-04-29 22:39 30.45896 -12.41358 29255 ft 423 kts 217°
2026-04-29 22:39 30.43529 -12.43392 28985 ft 425 kts 217°
2026-04-29 22:39 30.41153 -12.45433 28738 ft 424 kts 217°
2026-04-29 22:40 30.38774 -12.47474 28416 ft 423 kts 217°
2026-04-29 22:40 30.36433 -12.49482 27805 ft 422 kts 217°
2026-04-29 22:40 30.34068 -12.51509 27019 ft 422 kts 217°
2026-04-29 22:40 30.31710 -12.53529 26139 ft 419 kts 217°
2026-04-29 22:41 30.29402 -12.55505 25304 ft 408 kts 217°
2026-04-29 22:41 30.27139 -12.57441 24483 ft 400 kts 217°
2026-04-29 22:41 30.24906 -12.59351 23660 ft 396 kts 217°
2026-04-29 22:41 30.22697 -12.61238 22468 ft 393 kts 217°
2026-04-29 22:42 30.20488 -12.63125 20961 ft 396 kts 217°
2026-04-29 22:42 30.18287 -12.65004 19655 ft 397 kts 218°
2026-04-29 22:42 30.16067 -12.66898 18484 ft 394 kts 218°
2026-04-29 22:42 30.13874 -12.68769 17196 ft 390 kts 218°
2026-04-29 22:43 30.11699 -12.70622 15949 ft 386 kts 217°
2026-04-29 22:43 30.09554 -12.72454 15142 ft 373 kts 217°
2026-04-29 22:43 30.07549 -12.74167 14908 ft 356 kts 217°
2026-04-29 22:43 30.05557 -12.75871 14687 ft 357 kts 217°
2026-04-29 22:44 30.03554 -12.77584 14449 ft 359 kts 217°
2026-04-29 22:44 30.01554 -12.79293 14220 ft 356 kts 217°
2026-04-29 22:44 29.99566 -12.80991 13982 ft 354 kts 217°
2026-04-29 22:44 29.97607 -12.82662 13732 ft 353 kts 217°
2026-04-29 22:45 29.95638 -12.84342 13484 ft 352 kts 217°
2026-04-29 22:45 29.93672 -12.86017 13218 ft 351 kts 217°
2026-04-29 22:45 29.91706 -12.87692 12970 ft 350 kts 217°
2026-04-29 22:45 29.89751 -12.89357 12715 ft 349 kts 217°
2026-04-29 22:46 29.87799 -12.91019 12469 ft 348 kts 217°
2026-04-29 22:46 29.85852 -12.92675 12206 ft 347 kts 217°
2026-04-29 22:46 29.83912 -12.94325 11954 ft 346 kts 217°
2026-04-29 22:46 29.81976 -12.95970 11716 ft 345 kts 217°
2026-04-29 22:47 29.80049 -12.97607 11472 ft 344 kts 217°
2026-04-29 22:47 29.78118 -12.99246 11229 ft 343 kts 217°
2026-04-29 22:47 29.76195 -13.00878 10987 ft 342 kts 217°
2026-04-29 22:47 29.74282 -13.02501 10751 ft 341 kts 217°
2026-04-29 22:48 29.72374 -13.04119 10510 ft 340 kts 217°
2026-04-29 22:48 29.70471 -13.05731 10265 ft 339 kts 217°
2026-04-29 22:48 29.68574 -13.07339 10078 ft 338 kts 217°
2026-04-29 22:48 29.66729 -13.08900 10048 ft 323 kts 217°
2026-04-29 22:49 29.64943 -13.10410 10072 ft 322 kts 217°
2026-04-29 22:49 29.63101 -13.11970 10064 ft 327 kts 217°
2026-04-29 22:49 29.61307 -13.13486 10075 ft 321 kts 217°
2026-04-29 22:49 29.59493 -13.15020 10112 ft 317 kts 217°
2026-04-29 22:50 29.57672 -13.16559 10312 ft 332 kts 217°
2026-04-29 22:50 29.55786 -13.18152 10490 ft 339 kts 217°
2026-04-29 22:50 29.53875 -13.19765 10676 ft 341 kts 217°
2026-04-29 22:50 29.51981 -13.21362 10861 ft 341 kts 217°
2026-04-29 22:51 29.50062 -13.22980 11067 ft 342 kts 217°
2026-04-29 22:51 29.48143 -13.24597 11247 ft 343 kts 217°
2026-04-29 22:51 29.44287 -13.27843 11617 ft 344 kts 217°
2026-04-29 22:52 29.42355 -13.29468 11830 ft 344 kts 217°
2026-04-29 22:52 29.40423 -13.31094 12023 ft 344 kts 217°
2026-04-29 22:52 29.38488 -13.32720 12222 ft 345 kts 217°
2026-04-29 22:52 29.36545 -13.34353 12418 ft 346 kts 217°
2026-04-29 22:53 29.35261 -13.35432 12556 ft 346 kts 217°
2026-04-29 22:53 29.33313 -13.37067 12763 ft 347 kts 217°
2026-04-29 22:53 29.30698 -13.39261 13036 ft 348 kts 217°
2026-04-29 22:53 29.29401 -13.40349 13177 ft 349 kts 217°
2026-04-29 22:54 29.26800 -13.42529 13445 ft 350 kts 217°
2026-04-29 22:54 29.25468 -13.43645 13574 ft 351 kts 217°
2026-04-29 22:54 29.23495 -13.45298 13602 ft 351 kts 217°
2026-04-29 22:54 29.21524 -13.46948 13600 ft 352 kts 217°
2026-04-29 22:55 29.19572 -13.48581 13598 ft 352 kts 217°
2026-04-29 22:55 29.17587 -13.50241 13598 ft 352 kts 217°
2026-04-29 22:55 29.15665 -13.51989 13600 ft 353 kts 221°
2026-04-29 22:55 29.13796 -13.53820 13592 ft 354 kts 222°
2026-04-29 22:56 29.11935 -13.55667 13588 ft 354 kts 222°
2026-04-29 22:56 29.10073 -13.57515 13585 ft 354 kts 222°
2026-04-29 22:56 29.08237 -13.59334 13586 ft 354 kts 222°
2026-04-29 22:56 29.06371 -13.61181 13587 ft 354 kts 222°
2026-04-29 22:57 29.04509 -13.63021 13578 ft 354 kts 222°
2026-04-29 22:57 29.02037 -13.65462 13580 ft 354 kts 222°
2026-04-29 22:57 29.00776 -13.66707 13578 ft 354 kts 221°
2026-04-29 22:57 28.98909 -13.68549 13577 ft 354 kts 221°
2026-04-29 22:58 28.97068 -13.70362 13578 ft 354 kts 221°
2026-04-29 22:58 28.95201 -13.72202 13582 ft 354 kts 221°
2026-04-29 22:58 28.93334 -13.74040 13582 ft 354 kts 221°
2026-04-29 22:58 28.91459 -13.75886 13582 ft 354 kts 221°
2026-04-29 22:59 28.89590 -13.77724 13583 ft 354 kts 221°
2026-04-29 22:59 28.87724 -13.79559 13590 ft 354 kts 221°
2026-04-29 22:59 28.85856 -13.81394 13589 ft 354 kts 221°
2026-04-29 22:59 28.83990 -13.83228 13589 ft 354 kts 221°
2026-04-29 23:00 28.82121 -13.85062 13599 ft 354 kts 221°
2026-04-29 23:00 28.80256 -13.86891 13596 ft 354 kts 222°
2026-04-29 23:00 28.78406 -13.88706 13593 ft 355 kts 222°
2026-04-29 23:00 28.76532 -13.90543 13593 ft 355 kts 222°
2026-04-29 23:01 28.74662 -13.92377 13589 ft 355 kts 222°
2026-04-29 23:01 28.72784 -13.94216 13591 ft 355 kts 222°
2026-04-29 23:01 28.70911 -13.96050 13588 ft 355 kts 222°
2026-04-29 23:01 28.69034 -13.97886 13591 ft 355 kts 222°
2026-04-29 23:02 28.67154 -13.99725 13589 ft 355 kts 222°
2026-04-29 23:02 28.65274 -14.01563 13586 ft 355 kts 222°
2026-04-29 23:02 28.63399 -14.03395 13588 ft 355 kts 222°
2026-04-29 23:02 28.61547 -14.05203 13585 ft 355 kts 222°
2026-04-29 23:03 28.59670 -14.07035 13596 ft 355 kts 222°
2026-04-29 23:03 28.57793 -14.08866 13598 ft 355 kts 222°
2026-04-29 23:03 28.55910 -14.10702 13598 ft 355 kts 222°
2026-04-29 23:03 28.54030 -14.12534 13596 ft 355 kts 222°
2026-04-29 23:04 28.52148 -14.14367 13597 ft 355 kts 222°
2026-04-29 23:04 28.50295 -14.16172 13594 ft 355 kts 222°
2026-04-29 23:04 28.48415 -14.18001 13590 ft 355 kts 222°
2026-04-29 23:04 28.46535 -14.19830 13592 ft 354 kts 222°
2026-04-29 23:05 28.44662 -14.21651 13592 ft 354 kts 222°
2026-04-29 23:05 28.42790 -14.23471 13589 ft 354 kts 222°
2026-04-29 23:05 28.40940 -14.25268 13591 ft 354 kts 222°
2026-04-29 23:05 28.39065 -14.27087 13591 ft 354 kts 222°
2026-04-29 23:06 28.37184 -14.28911 13596 ft 354 kts 222°
2026-04-29 23:06 28.35310 -14.30727 13592 ft 354 kts 222°
2026-04-29 23:06 28.33437 -14.32543 13594 ft 354 kts 222°
2026-04-29 23:06 28.31558 -14.34362 13594 ft 354 kts 222°
2026-04-29 23:07 28.29677 -14.36182 13595 ft 354 kts 222°
2026-04-29 23:07 28.27829 -14.37971 13598 ft 354 kts 222°
2026-04-29 23:07 28.25953 -14.39784 13597 ft 354 kts 222°
2026-04-29 23:07 28.24073 -14.41601 13595 ft 354 kts 222°
2026-04-29 23:08 28.22195 -14.43416 13590 ft 354 kts 222°
2026-04-29 23:08 28.20316 -14.45231 13593 ft 354 kts 222°
2026-04-29 23:08 28.18434 -14.47047 13583 ft 354 kts 222°
2026-04-29 23:08 28.16556 -14.48859 13337 ft 353 kts 222°
2026-04-29 23:09 28.14683 -14.50665 13100 ft 351 kts 222°
2026-04-29 23:09 28.12824 -14.52456 12806 ft 350 kts 222°
2026-04-29 23:09 28.10977 -14.54236 12270 ft 348 kts 222°
2026-04-29 23:09 28.09181 -14.55964 11658 ft 335 kts 222°
2026-04-29 23:10 28.07438 -14.57639 11291 ft 314 kts 222°
2026-04-29 23:10 28.05832 -14.59182 10951 ft 297 kts 222°
2026-04-29 23:10 28.04290 -14.60665 10589 ft 284 kts 222°
2026-04-29 23:10 28.02792 -14.62106 10252 ft 280 kts 222°
2026-04-29 23:11 28.01328 -14.63515 9992 ft 280 kts 222°
2026-04-29 23:11 27.99874 -14.64983 9692 ft 279 kts 225°
2026-04-29 23:11 27.98510 -14.66543 9436 ft 277 kts 227°
2026-04-29 23:11 27.97175 -14.68121 9174 ft 276 kts 227°
2026-04-29 23:12 27.95851 -14.69692 8932 ft 276 kts 227°
2026-04-29 23:12 27.94526 -14.71262 8670 ft 275 kts 227°
2026-04-29 23:12 27.93205 -14.72827 8414 ft 275 kts 227°
2026-04-29 23:12 27.91887 -14.74387 8175 ft 274 kts 227°
2026-04-29 23:13 27.90585 -14.75925 7944 ft 274 kts 227°
2026-04-29 23:13 27.89269 -14.77479 7690 ft 273 kts 227°
2026-04-29 23:13 27.87953 -14.79034 7444 ft 273 kts 227°
2026-04-29 23:13 27.86641 -14.80582 7213 ft 272 kts 227°
2026-04-29 23:14 27.85330 -14.82129 6957 ft 272 kts 227°
2026-04-29 23:14 27.84025 -14.83667 6709 ft 270 kts 227°
2026-04-29 23:14 27.82742 -14.85180 6467 ft 269 kts 227°
2026-04-29 23:14 27.81445 -14.86709 6244 ft 269 kts 227°
2026-04-29 23:15 27.80152 -14.88231 5990 ft 268 kts 227°
2026-04-29 23:15 27.78856 -14.89758 5729 ft 268 kts 227°
2026-04-29 23:15 27.77568 -14.91273 5578 ft 266 kts 227°
2026-04-29 23:15 27.76313 -14.92749 5457 ft 255 kts 227°
2026-04-29 23:16 27.75112 -14.94160 5367 ft 242 kts 227°
2026-04-29 23:16 27.73974 -14.95497 5269 ft 232 kts 228°
2026-04-29 23:16 27.72853 -14.96815 5129 ft 232 kts 228°
2026-04-29 23:16 27.71749 -14.98115 5064 ft 232 kts 228°
2026-04-29 23:17 27.70667 -14.99476 5049 ft 232 kts 235°
2026-04-29 23:17 27.69966 -15.01087 4930 ft 229 kts 257°
2026-04-29 23:17 27.69804 -15.02867 4804 ft 228 kts 269°
2026-04-29 23:17 27.69821 -15.04658 4675 ft 228 kts 271°
2026-04-29 23:18 27.69863 -15.06449 4545 ft 228 kts 272°
2026-04-29 23:18 27.69902 -15.08237 4420 ft 227 kts 271°
2026-04-29 23:18 27.69935 -15.09997 4295 ft 227 kts 271°
2026-04-29 23:18 27.69964 -15.11784 4167 ft 227 kts 271°
2026-04-29 23:19 27.69990 -15.13565 4042 ft 227 kts 271°
2026-04-29 23:19 27.70015 -15.15346 3917 ft 227 kts 271°
2026-04-29 23:19 27.70040 -15.17124 3824 ft 226 kts 271°
2026-04-29 23:19 27.70063 -15.18904 3808 ft 227 kts 271°
2026-04-29 23:20 27.70086 -15.20683 3808 ft 227 kts 271°
2026-04-29 23:20 27.70109 -15.22462 3807 ft 226 kts 271°
2026-04-29 23:20 27.70132 -15.24243 3801 ft 227 kts 271°
2026-04-29 23:20 27.70153 -15.25999 3801 ft 226 kts 271°
2026-04-29 23:21 27.70175 -15.27775 3802 ft 226 kts 271°
2026-04-29 23:21 27.70197 -15.29552 3804 ft 226 kts 271°
2026-04-29 23:21 27.70219 -15.31332 3801 ft 227 kts 271°
2026-04-29 23:21 27.70240 -15.33083 3801 ft 215 kts 271°
2026-04-29 23:22 27.70258 -15.34706 3809 ft 198 kts 271°
2026-04-29 23:22 27.70276 -15.36197 3815 ft 184 kts 271°
2026-04-29 23:22 27.70292 -15.37615 3805 ft 183 kts 271°
2026-04-29 23:22 27.70309 -15.39060 3803 ft 184 kts 271°
2026-04-29 23:23 27.70326 -15.40508 3801 ft 184 kts 271°
2026-04-29 23:23 27.70343 -15.41958 3803 ft 185 kts 271°
2026-04-29 23:23 27.70360 -15.43411 3797 ft 184 kts 271°
2026-04-29 23:23 27.70512 -15.44847 3683 ft 185 kts 286°
2026-04-29 23:24 27.71087 -15.46101 3311 ft 183 kts 309°
2026-04-29 23:24 27.72101 -15.46952 3041 ft 184 kts 335°
2026-04-29 23:24 27.73361 -15.47237 2997 ft 188 kts 359°
2026-04-29 23:24 27.74635 -15.46911 2985 ft 190 kts 23°
2026-04-29 23:25 27.75824 -15.46253 2897 ft 189 kts 24°
2026-04-29 23:25 27.77030 -15.45699 2766 ft 181 kts 19°
2026-04-29 23:25 27.78172 -15.45257 2637 ft 169 kts 16°
2026-04-29 23:25 27.79279 -15.44838 2423 ft 166 kts 18°
2026-04-29 23:26 27.80347 -15.44395 2234 ft 165 kts 22°
2026-04-29 23:26 27.81398 -15.43867 2203 ft 166 kts 24°
2026-04-29 23:26 27.82450 -15.43373 2033 ft 158 kts 19°
2026-04-29 23:26 27.83445 -15.42961 1806 ft 146 kts 20°
2026-04-29 23:27 27.84367 -15.42577 1653 ft 137 kts 21°
2026-04-29 23:27 27.85228 -15.42165 1455 ft 133 kts 21°
2026-04-29 23:27 27.86089 -15.41797 1316 ft 132 kts 20°
2026-04-29 23:27 27.86938 -15.41437 1146 ft 132 kts 22°
2026-04-29 23:28 27.87788 -15.41038 1009 ft 132 kts 21°
2026-04-29 23:28 27.88651 -15.40660 870 ft 133 kts 20°
2026-04-29 23:28 27.89520 -15.40290 672 ft 134 kts 22°
2026-04-29 23:28 27.90385 -15.39899 466 ft 133 kts 21°
2026-04-29 23:29 27.91252 -15.39519 266 ft 134 kts 23°
2026-04-29 23:29 27.92115 -15.39134 94 ft 132 kts 22°
2026-04-29 23:29 27.92884 -15.38793 57 ft 95 kts 21°
2026-04-29 23:29 27.93316 -15.38603 52 ft 38 kts 21°
2026-04-29 23:30 27.93547 -15.38501 52 ft 36 kts 21°
2026-04-29 23:30 27.93779 -15.38428 48 ft 34 kts
2026-04-29 23:30 27.93974 -15.38441 48 ft 14 kts 347°
2026-04-29 23:30 27.94001 -15.38485 47 ft 2 kts 245°
2026-04-29 23:31 27.93969 -15.38505 48 ft 12 kts 206°
2026-04-29 23:31 27.93868 -15.38551 49 ft 17 kts 200°
2026-04-29 23:31 27.93754 -15.38601 51 ft 18 kts 201°
2026-04-29 23:31 27.93634 -15.38653 48 ft 19 kts 201°
2026-04-29 23:32 27.93509 -15.38709 50 ft 20 kts 201°
2026-04-29 23:32 27.93431 -15.38781 52 ft 0 kts 270°
2026-04-29 23:33 27.93436 -15.38824 50 ft 16 kts 283°
2026-04-29 23:33 27.93433 -15.38911 52 ft 11 kts 258°
2026-04-29 23:33 27.93445 -15.38973 54 ft 7 kts 291°
2026-04-29 23:33 27.93448 -15.38981 53 ft 0 kts 291°